Notices

What's New in latest Release from April 7th, 2021:

- Updated Glossary, including Speed of Maximum Gust, and Total Hourly Precipitation

- Updated national and regional climate services offices contacts and prices information

- Addition of station inventory lists for 1981-2010, 1971-2000, and 1961-1990 Normals.

If you haven't already, please take our survey and provide feedback about our website: https://eccc.sondage-survey.ca/f/LanguageSelection.aspx?s=442ca660-fcf1-47c0-95a9-59707d6fd709

Hourly Data Report for December 11, 2019

SAINT JOHN A
NEW BRUNSWICK
Current Station Operator: NAVCAN

45°18'58.000" N
65°53'24.000" W
108.80 m
8104901
71609
YSJ

Download Data

Hourly Data (December 2019)
Hourly Data Report for December 11, 2019
TIME
LST
Temp Definition
°C
Dew Point Definition
°C
Rel Hum Definition
%
Precip. Amount Definition
mm

Wind Dir Definition
10's deg

Wind Spd Definition
km/h
Visibility Definition
km
Stn Press Definition
kPa
Hmdx Definition


Wind Chill Definition


Weather Definition


00:00 4.2 1.6 83   30 30 8.1 99.64     Rain,Fog
01:00 2.6 0.7 88   29 25 8.1 99.85     Drizzle,Fog
02:00 0.8 -0.4 92   30 29 9.7 99.95     Drizzle,Snow
03:00 0.2 -0.2 97   30 14 4.8 100.07     Snow
04:00 -0.3 -1.2 93   29 21 4.8 100.20   -6 Snow
05:00 -0.5 -1.1 96   26 13 9.7 100.23   -5 Snow
06:00 -0.3 -1.2 94   26 9 12.9 100.31   -3 Snow
07:00 -1.6 -3.5 87   30 19 4.8 100.48   -7 Snow
08:00 -1.8 -3.9 86   31 9 8.1 100.57   -5 Snow
09:00 -2.4 -6.3 75   29 8 16.1 100.67   -6 Snow
10:00 -2.5 -6.8 73   32 16 24.1 100.77   -8 LegendNANA
11:00 -3.0 -7.4 72   33 21 16.1 100.77   -9 Cloudy
12:00 -4.0 -7.5 77   36 21 16.1 100.75   -10 LegendNANA
13:00 -4.7 -8.4 75   35 14 16.1 100.76   -10 LegendNANA
14:00 -4.9 -8.8 74   35 15 4.8 100.77   -10 Snow
15:00 -5.9 -8.5 82   34 13 4.8 100.81   -11 Snow
16:00 -5.8 -9.1 78   1 4 24.1 100.80   -8 LegendNANA
17:00 -7.1 -10.7 76   35 10 24.1 100.84   -12 Mainly Clear
18:00 -8.1 -11.4 77   34 12 24.1 100.87   -14 LegendNANA
19:00 -8.3 -11.0 81   32 5 24.1 100.87   -11 LegendNANA
20:00 -9.0 -11.0 85   0 1 24.1 100.91   -10 Mainly Clear
21:00 -10.4 -11.0 95   1 3 24.1 100.93   -12 LegendNANA
22:00 -10.5 -11.3 94   36 1 24.1 100.91   -11 LegendNANA
23:00 -11.0 -11.8 93   36 1 24.1 100.92   -12 Clear

Notes on Data Quality.

Legend

  • E = Estimated
  • M = Missing
  • NA = Not Available*
  • [empty] = Indicates an unobserved value
Date modified: